TimeCDT,TemperatureF,Dew PointF,Humidity,Sea Level PressureIn,VisibilityMPH,Wind Direction,Wind SpeedMPH,Gust SpeedMPH,PrecipitationIn,Events,Conditions,WindDirDegrees,DateUTC
12:15 AM,33.8,19.8,56,30.05,10.0,NE,10.4,18.4,N/A,,Clear,50,2013-04-11 05:15:00
12:35 AM,33.8,20.5,58,30.04,10.0,NE,10.4,16.1,N/A,,Clear,50,2013-04-11 05:35:00
12:55 AM,33.4,21.2,61,30.03,10.0,NE,10.4,17.3,N/A,,Clear,50,2013-04-11 05:55:00
1:15 AM,33.3,21.9,63,30.01,10.0,ENE,10.4,19.6,N/A,,Clear,60,2013-04-11 06:15:00
1:35 AM,33.1,22.6,66,30.03,10.0,NE,10.4,17.3,N/A,,Clear,50,2013-04-11 06:35:00
1:55 AM,33.1,23.2,67,30.04,10.0,ENE,8.1,-,N/A,,Clear,70,2013-04-11 06:55:00
2:15 AM,33.1,23.7,68,30.03,10.0,ENE,6.9,-,N/A,,Mostly Cloudy,70,2013-04-11 07:15:00
2:35 AM,32.9,24.3,71,30.01,10.0,ENE,10.4,-,N/A,,Overcast,70,2013-04-11 07:35:00
2:55 AM,32.5,25.2,74,29.99,10.0,ENE,10.4,-,N/A,,Mostly Cloudy,70,2013-04-11 07:55:00
3:15 AM,32.2,25.9,78,29.95,10.0,ENE,12.7,19.6,N/A,,Scattered Clouds,70,2013-04-11 08:15:00
3:35 AM,32.2,26.4,79,29.92,10.0,ENE,13.8,25.3,N/A,,Clear,60,2013-04-11 08:35:00
3:55 AM,32.7,27.1,80,29.90,10.0,NE,16.1,25.3,N/A,,Clear,50,2013-04-11 08:55:00
4:15 AM,33.8,27.3,77,29.94,10.0,NE,12.7,21.9,N/A,,Clear,50,2013-04-11 09:15:00
4:35 AM,34.7,27.1,74,29.99,10.0,NE,8.1,17.3,N/A,,Mostly Cloudy,50,2013-04-11 09:35:00
4:55 AM,34.7,26.8,73,30.00,10.0,NE,10.4,16.1,N/A,,Overcast,50,2013-04-11 09:55:00
5:15 AM,34.7,26.6,72,29.99,10.0,NE,9.2,18.4,N/A,,Overcast,50,2013-04-11 10:15:00
5:35 AM,34.7,26.6,72,29.97,10.0,ENE,12.7,20.7,N/A,,Overcast,60,2013-04-11 10:35:00
5:55 AM,34.3,26.6,73,29.94,10.0,ENE,13.8,20.7,N/A,,Overcast,60,2013-04-11 10:55:00
6:15 AM,34.2,26.6,74,29.94,10.0,ENE,10.4,21.9,N/A,,Overcast,60,2013-04-11 11:15:00
6:35 AM,34.0,26.6,74,29.96,10.0,ENE,11.5,21.9,N/A,,Overcast,60,2013-04-11 11:35:00
6:55 AM,33.8,27.0,76,29.95,10.0,ENE,12.7,23.0,N/A,,Overcast,60,2013-04-11 11:55:00
7:15 AM,33.8,26.6,75,29.94,10.0,ENE,13.8,23.0,N/A,,Overcast,60,2013-04-11 12:15:00
7:35 AM,33.4,27.1,78,29.95,10.0,ENE,13.8,21.9,N/A,,Overcast,70,2013-04-11 12:35:00
7:55 AM,33.8,26.6,75,29.94,10.0,ENE,16.1,24.2,N/A,,Overcast,70,2013-04-11 12:55:00
8:15 AM,33.4,26.2,75,29.94,10.0,ENE,13.8,23.0,N/A,,Overcast,70,2013-04-11 13:15:00
8:35 AM,33.3,26.6,77,29.95,10.0,ENE,16.1,20.7,N/A,,Overcast,70,2013-04-11 13:35:00
8:55 AM,33.4,26.6,76,29.93,10.0,ENE,16.1,27.6,N/A,,Overcast,60,2013-04-11 13:55:00
9:15 AM,33.3,26.6,77,29.92,10.0,ENE,15.0,24.2,N/A,,Overcast,60,2013-04-11 14:15:00
9:35 AM,33.1,26.1,75,29.92,10.0,ENE,13.8,25.3,N/A,,Overcast,70,2013-04-11 14:35:00
9:55 AM,32.9,26.2,76,29.91,10.0,East,16.1,27.6,N/A,,Overcast,80,2013-04-11 14:55:00
10:15 AM,32.7,26.8,79,29.91,7.0,East,13.8,23.0,N/A,,Overcast,80,2013-04-11 15:15:00
10:35 AM,32.0,28.4,87,29.92,3.0,ENE,11.5,20.7,N/A,,Overcast,70,2013-04-11 15:35:00
10:55 AM,32.2,28.4,86,29.92,5.0,East,17.3,24.2,N/A,,Overcast,80,2013-04-11 15:55:00
11:15 AM,32.0,28.9,88,29.88,3.0,ENE,16.1,24.2,N/A,,Overcast,70,2013-04-11 16:15:00
11:35 AM,32.0,29.1,89,29.90,4.0,ENE,15.0,24.2,N/A,,Overcast,70,2013-04-11 16:35:00
12:15 PM,31.6,28.6,88,29.90,4.0,ENE,11.5,21.9,0.01,,Overcast,70,2013-04-11 17:15:00
12:35 PM,31.5,28.8,90,29.90,4.0,NE,12.7,18.4,0.02,,Overcast,50,2013-04-11 17:35:00
12:55 PM,31.1,28.4,90,29.88,3.0,ENE,10.4,19.6,0.04,,Overcast,60,2013-04-11 17:55:00
1:15 PM,30.9,28.2,90,29.87,3.0,ENE,10.4,19.6,0.02,,Overcast,60,2013-04-11 18:15:00
1:35 PM,30.7,27.9,89,29.85,3.0,ENE,10.4,20.7,0.03,,Overcast,70,2013-04-11 18:35:00
1:55 PM,30.6,27.9,90,29.85,5.0,ENE,9.2,-,0.04,,Overcast,60,2013-04-11 18:55:00
2:15 PM,30.6,27.5,88,29.87,10.0,ENE,8.1,16.1,N/A,,Overcast,70,2013-04-11 19:15:00
2:35 PM,30.6,27.3,88,29.85,10.0,ENE,10.4,17.3,N/A,,Overcast,70,2013-04-11 19:35:00
2:55 PM,30.6,27.3,88,29.84,10.0,ENE,8.1,-,N/A,,Overcast,60,2013-04-11 19:55:00
3:15 PM,30.6,27.5,88,29.84,7.0,ENE,8.1,16.1,N/A,,Overcast,60,2013-04-11 20:15:00
3:35 PM,30.7,27.5,88,29.84,10.0,ENE,8.1,-,N/A,,Overcast,60,2013-04-11 20:35:00
3:55 PM,30.6,27.3,88,29.82,5.0,ENE,10.4,16.1,N/A,,Overcast,70,2013-04-11 20:55:00
4:15 PM,30.6,28.4,92,29.83,2.5,ENE,12.7,16.1,N/A,,Overcast,70,2013-04-11 21:15:00
4:35 PM,30.2,28.4,93,29.83,2.0,ENE,8.1,-,N/A,,Overcast,60,2013-04-11 21:35:00
4:55 PM,30.2,28.4,93,29.81,3.0,NE,9.2,-,N/A,,Overcast,50,2013-04-11 21:55:00
5:15 PM,30.0,28.2,93,29.80,3.0,ENE,6.9,-,N/A,,Overcast,60,2013-04-11 22:15:00
5:35 PM,30.0,28.4,94,29.81,3.0,ENE,6.9,-,N/A,,Overcast,70,2013-04-11 22:35:00
5:55 PM,29.8,28.4,94,29.81,2.5,ENE,6.9,-,N/A,,Overcast,60,2013-04-11 22:55:00
6:15 PM,29.8,28.4,94,29.79,3.0,ENE,8.1,-,N/A,,Overcast,60,2013-04-11 23:15:00
6:35 PM,29.7,28.2,94,29.81,3.0,ENE,4.6,-,N/A,,Overcast,60,2013-04-11 23:35:00
6:55 PM,29.7,28.2,94,29.83,3.0,ENE,4.6,-,N/A,,Overcast,60,2013-04-11 23:55:00
7:15 PM,29.7,28.4,95,29.84,2.0,NE,8.1,-,0.02,,Overcast,50,2013-04-12 00:15:00
7:35 PM,29.3,28.4,96,29.83,2.0,ENE,5.8,-,0.03,,Overcast,60,2013-04-12 00:35:00
7:55 PM,29.3,28.4,96,29.79,1.0,NE,8.1,-,0.06,,Overcast,50,2013-04-12 00:55:00
8:15 PM,29.3,28.4,96,29.75,2.0,ENE,8.1,-,N/A,,Overcast,60,2013-04-12 01:15:00
8:35 PM,29.3,28.2,96,29.75,2.5,ENE,6.9,-,N/A,,Overcast,60,2013-04-12 01:35:00
8:55 PM,29.3,27.7,94,29.75,7.0,ENE,8.1,-,N/A,,Overcast,60,2013-04-12 01:55:00
9:15 PM,29.3,27.5,93,29.76,7.0,ENE,8.1,-,N/A,,Overcast,60,2013-04-12 02:15:00
9:35 PM,29.3,27.9,94,29.76,7.0,ENE,8.1,-,N/A,,Overcast,60,2013-04-12 02:35:00
9:55 PM,29.5,28.0,94,29.74,7.0,ENE,8.1,-,N/A,,Overcast,60,2013-04-12 02:55:00
10:15 PM,29.7,28.4,95,29.72,3.0,NE,8.1,-,N/A,,Overcast,50,2013-04-12 03:15:00
10:35 PM,29.7,28.8,96,29.71,1.2,ENE,6.9,-,N/A,,Overcast,60,2013-04-12 03:35:00
10:55 PM,30.0,29.1,96,29.72,1.8,ENE,8.1,-,0.01,,Overcast,70,2013-04-12 03:55:00
11:15 PM,30.2,29.1,96,29.71,2.5,ENE,8.1,-,N/A,,Overcast,70,2013-04-12 04:15:00
11:35 PM,30.0,29.3,97,29.71,1.0,ENE,5.8,-,N/A,,Overcast,60,2013-04-12 04:35:00
11:55 PM,30.0,29.3,97,29.71,0.8,ENE,6.9,-,0.01,,Overcast,70,2013-04-12 04:55:00